owner,sensor,date,latitude,longitude,vertical_datum,sea_water_temperature,qcFlag 
DISL,ioos:station:DISL:DISL:1,2019-09-01T00:00:00Z,30.2513,-88.0778,-1.72,30.48,11111222 
DISL,ioos:station:DISL:DISL:1,2019-09-01T01:00:00Z,30.2513,-88.0778,-1.72,30.47,11111222 
DISL,ioos:station:DISL:DISL:1,2019-09-01T02:00:00Z,30.2513,-88.0778,-1.72,30.35,11111222 
DISL,ioos:station:DISL:DISL:1,2019-09-01T03:00:00Z,30.2513,-88.0778,-1.72,30.21,11111222 
DISL,ioos:station:DISL:DISL:1,2019-09-01T04:00:00Z,30.2513,-88.0778,-1.72,30.25,11111222 
DISL,ioos:station:DISL:DISL:1,2019-09-01T05:00:00Z,30.2513,-88.0778,-1.72,30.3,11111222 
DISL,ioos:station:DISL:DISL:1,2019-09-01T06:00:00Z,30.2513,-88.0778,-1.72,30.33,11111222 
DISL,ioos:station:DISL:DISL:1,2019-09-01T07:00:00Z,30.2513,-88.0778,-1.72,30.02,11111222 
DISL,ioos:station:DISL:DISL:1,2019-09-01T08:00:00Z,30.2513,-88.0778,-1.72,30.05,11111222 
DISL,ioos:station:DISL:DISL:1,2019-09-01T09:00:00Z,30.2513,-88.0778,-1.72,29.74,11111222 
DISL,ioos:station:DISL:DISL:1,2019-09-01T10:00:00Z,30.2513,-88.0778,-1.72,29.92,11111222 
DISL,ioos:station:DISL:DISL:1,2019-09-01T11:00:00Z,30.2513,-88.0778,-1.72,29.87,11111222 
DISL,ioos:station:DISL:DISL:1,2019-09-01T12:00:00Z,30.2513,-88.0778,-1.72,29.85,11111222 
DISL,ioos:station:DISL:DISL:1,2019-09-01T13:00:00Z,30.2513,-88.0778,-1.72,29.87,11111222 
DISL,ioos:station:DISL:DISL:1,2019-09-01T14:00:00Z,30.2513,-88.0778,-1.72,30.02,11111222 
DISL,ioos:station:DISL:DISL:1,2019-09-01T15:00:00Z,30.2513,-88.0778,-1.72,30.04,11111222 
DISL,ioos:station:DISL:DISL:1,2019-09-01T16:00:00Z,30.2513,-88.0778,-1.72,30.03,11111222 
DISL,ioos:station:DISL:DISL:1,2019-09-01T17:00:00Z,30.2513,-88.0778,-1.72,30.04,11111222 
DISL,ioos:station:DISL:DISL:1,2019-09-01T18:00:00Z,30.2513,-88.0778,-1.72,30.07,11111222 
DISL,ioos:station:DISL:DISL:1,2019-09-01T19:00:00Z,30.2513,-88.0778,-1.72,30.07,11111222 
DISL,ioos:station:DISL:DISL:1,2019-09-01T20:00:00Z,30.2513,-88.0778,-1.72,30.1,11111222 
DISL,ioos:station:DISL:DISL:1,2019-09-01T21:00:00Z,30.2513,-88.0778,-1.72,30.21,11111222 
DISL,ioos:station:DISL:DISL:1,2019-09-01T22:00:00Z,30.2513,-88.0778,-1.72,30.18,11111222 
DISL,ioos:station:DISL:DISL:1,2019-09-01T23:00:00Z,30.2513,-88.0778,-1.72,30.09,11111222 
DISL,ioos:station:DISL:DISL:1,2019-09-02T00:00:00Z,30.2513,-88.0778,-1.72,29.7,11111222 
DISL,ioos:station:DISL:DISL:1,2019-09-02T01:00:00Z,30.2513,-88.0778,-1.72,29.83,11111222 
DISL,ioos:station:DISL:DISL:1,2019-09-02T02:00:00Z,30.2513,-88.0778,-1.72,29.8,11111222 
DISL,ioos:station:DISL:DISL:1,2019-09-02T03:00:00Z,30.2513,-88.0778,-1.72,29.79,11111222 
DISL,ioos:station:DISL:DISL:1,2019-09-02T04:00:00Z,30.2513,-88.0778,-1.72,29.67,11111222 
DISL,ioos:station:DISL:DISL:1,2019-09-02T05:00:00Z,30.2513,-88.0778,-1.72,29.59,11111222 
DISL,ioos:station:DISL:DISL:1,2019-09-02T06:00:00Z,30.2513,-88.0778,-1.72,29.54,11111222 
DISL,ioos:station:DISL:DISL:1,2019-09-02T07:00:00Z,30.2513,-88.0778,-1.72,29.65,11111222 
DISL,ioos:station:DISL:DISL:1,2019-09-02T08:00:00Z,30.2513,-88.0778,-1.72,29.74,11111222 
DISL,ioos:station:DISL:DISL:1,2019-09-02T09:00:00Z,30.2513,-88.0778,-1.72,29.37,11111222 
DISL,ioos:station:DISL:DISL:1,2019-09-02T10:00:00Z,30.2513,-88.0778,-1.72,29.08,11111222 
DISL,ioos:station:DISL:DISL:1,2019-09-02T11:00:00Z,30.2513,-88.0778,-1.72,28.78,11111222 
DISL,ioos:station:DISL:DISL:1,2019-09-02T12:00:00Z,30.2513,-88.0778,-1.72,28.85,11111222 
DISL,ioos:station:DISL:DISL:1,2019-09-02T13:00:00Z,30.2513,-88.0778,-1.72,28.84,11111222 
DISL,ioos:station:DISL:DISL:1,2019-09-02T16:00:00Z,30.2513,-88.0778,-1.72,29.04,11111222 
DISL,ioos:station:DISL:DISL:1,2019-09-02T17:00:00Z,30.2513,-88.0778,-1.72,29.5,11111222 
DISL,ioos:station:DISL:DISL:1,2019-09-02T18:00:00Z,30.2513,-88.0778,-1.72,29.63,11111222 
DISL,ioos:station:DISL:DISL:1,2019-09-02T19:00:00Z,30.2513,-88.0778,-1.72,29.76,11111222 
DISL,ioos:station:DISL:DISL:1,2019-09-02T20:00:00Z,30.2513,-88.0778,-1.72,29.9,11111222 
DISL,ioos:station:DISL:DISL:1,2019-09-02T21:00:00Z,30.2513,-88.0778,-1.72,30.3,11111222 
DISL,ioos:station:DISL:DISL:1,2019-09-02T22:00:00Z,30.2513,-88.0778,-1.72,30.84,11111222 
DISL,ioos:station:DISL:DISL:1,2019-09-02T23:00:00Z,30.2513,-88.0778,-1.72,31.02,11111222 
DISL,ioos:station:DISL:DISL:1,2019-09-03T00:00:00Z,30.2513,-88.0778,-1.72,31.12,11111222 
DISL,ioos:station:DISL:DISL:1,2019-09-03T01:00:00Z,30.2513,-88.0778,-1.72,30.69,11111222 
DISL,ioos:station:DISL:DISL:1,2019-09-03T02:00:00Z,30.2513,-88.0778,-1.72,30.47,11111222 
DISL,ioos:station:DISL:DISL:1,2019-09-03T03:00:00Z,30.2513,-88.0778,-1.72,30.13,11111222 
DISL,ioos:station:DISL:DISL:1,2019-09-03T04:00:00Z,30.2513,-88.0778,-1.72,29.97,11111222 
DISL,ioos:station:DISL:DISL:1,2019-09-03T05:00:00Z,30.2513,-88.0778,-1.72,29.93,11111222 
DISL,ioos:station:DISL:DISL:1,2019-09-03T06:00:00Z,30.2513,-88.0778,-1.72,30.02,11111222 
DISL,ioos:station:DISL:DISL:1,2019-09-03T07:00:00Z,30.2513,-88.0778,-1.72,29.94,11111222 
DISL,ioos:station:DISL:DISL:1,2019-09-03T08:00:00Z,30.2513,-88.0778,-1.72,29.97,11111222 
DISL,ioos:station:DISL:DISL:1,2019-09-03T09:00:00Z,30.2513,-88.0778,-1.72,29.33,11111222 
DISL,ioos:station:DISL:DISL:1,2019-09-03T10:00:00Z,30.2513,-88.0778,-1.72,29.23,11111222 
DISL,ioos:station:DISL:DISL:1,2019-09-03T11:00:00Z,30.2513,-88.0778,-1.72,29.19,11111222 
DISL,ioos:station:DISL:DISL:1,2019-09-03T12:00:00Z,30.2513,-88.0778,-1.72,29.06,11111222 
DISL,ioos:station:DISL:DISL:1,2019-09-03T13:00:00Z,30.2513,-88.0778,-1.72,29.01,11111222 
DISL,ioos:station:DISL:DISL:1,2019-09-03T14:00:00Z,30.2513,-88.0778,-1.72,29.1,11111222 
DISL,ioos:station:DISL:DISL:1,2019-09-03T15:00:00Z,30.2513,-88.0778,-1.72,29.35,11111222 
DISL,ioos:station:DISL:DISL:1,2019-09-03T16:00:00Z,30.2513,-88.0778,-1.72,29.6,11111222 
DISL,ioos:station:DISL:DISL:1,2019-09-03T17:00:00Z,30.2513,-88.0778,-1.72,29.64,11111222 
DISL,ioos:station:DISL:DISL:1,2019-09-03T18:00:00Z,30.2513,-88.0778,-1.72,29.62,11111222 
DISL,ioos:station:DISL:DISL:1,2019-09-03T19:00:00Z,30.2513,-88.0778,-1.72,29.82,11111222 
DISL,ioos:station:DISL:DISL:1,2019-09-03T20:00:00Z,30.2513,-88.0778,-1.72,29.74,11111222 
DISL,ioos:station:DISL:DISL:1,2019-09-03T21:00:00Z,30.2513,-88.0778,-1.72,29.81,11111222 
DISL,ioos:station:DISL:DISL:1,2019-09-03T22:00:00Z,30.2513,-88.0778,-1.72,30.14,11111222 
DISL,ioos:station:DISL:DISL:1,2019-09-03T23:00:00Z,30.2513,-88.0778,-1.72,30.31,11111222 
DISL,ioos:station:DISL:DISL:1,2019-09-04T00:00:00Z,30.2513,-88.0778,-1.72,30.09,11111222 
DISL,ioos:station:DISL:DISL:1,2019-09-04T01:00:00Z,30.2513,-88.0778,-1.72,30.29,11111222 
DISL,ioos:station:DISL:DISL:1,2019-09-04T02:00:00Z,30.2513,-88.0778,-1.72,30.16,11111222 
DISL,ioos:station:DISL:DISL:1,2019-09-04T03:00:00Z,30.2513,-88.0778,-1.72,30.21,11111222 
DISL,ioos:station:DISL:DISL:1,2019-09-04T04:00:00Z,30.2513,-88.0778,-1.72,30.26,11111222 
DISL,ioos:station:DISL:DISL:1,2019-09-04T05:00:00Z,30.2513,-88.0778,-1.72,30.29,11111222 
DISL,ioos:station:DISL:DISL:1,2019-09-04T06:00:00Z,30.2513,-88.0778,-1.72,30.39,11111222 
DISL,ioos:station:DISL:DISL:1,2019-09-04T07:00:00Z,30.2513,-88.0778,-1.72,30.69,11111222 
DISL,ioos:station:DISL:DISL:1,2019-09-04T08:00:00Z,30.2513,-88.0778,-1.72,30.56,11111222 
DISL,ioos:station:DISL:DISL:1,2019-09-04T09:00:00Z,30.2513,-88.0778,-1.72,30.52,11111222 
DISL,ioos:station:DISL:DISL:1,2019-09-04T10:00:00Z,30.2513,-88.0778,-1.72,30.08,11111222 
DISL,ioos:station:DISL:DISL:1,2019-09-04T11:00:00Z,30.2513,-88.0778,-1.72,29.99,11111222 
DISL,ioos:station:DISL:DISL:1,2019-09-04T12:00:00Z,30.2513,-88.0778,-1.72,29.77,11111222 
DISL,ioos:station:DISL:DISL:1,2019-09-04T13:00:00Z,30.2513,-88.0778,-1.72,29.73,11111222 
DISL,ioos:station:DISL:DISL:1,2019-09-04T14:00:00Z,30.2513,-88.0778,-1.72,29.81,11111222 
DISL,ioos:station:DISL:DISL:1,2019-09-04T15:00:00Z,30.2513,-88.0778,-1.72,30.02,11111222 
DISL,ioos:station:DISL:DISL:1,2019-09-04T16:00:00Z,30.2513,-88.0778,-1.72,30.2,11111222 
DISL,ioos:station:DISL:DISL:1,2019-09-04T17:00:00Z,30.2513,-88.0778,-1.72,30.55,11111222 
DISL,ioos:station:DISL:DISL:1,2019-09-04T18:00:00Z,30.2513,-88.0778,-1.72,30.93,11111222 
DISL,ioos:station:DISL:DISL:1,2019-09-04T19:00:00Z,30.2513,-88.0778,-1.72,30.32,11111222 
DISL,ioos:station:DISL:DISL:1,2019-09-04T20:00:00Z,30.2513,-88.0778,-1.72,30.11,11111222 
DISL,ioos:station:DISL:DISL:1,2019-09-04T21:00:00Z,30.2513,-88.0778,-1.72,30.35,11111222 
DISL,ioos:station:DISL:DISL:1,2019-09-04T22:00:00Z,30.2513,-88.0778,-1.72,30.28,11111222 
DISL,ioos:station:DISL:DISL:1,2019-09-04T23:00:00Z,30.2513,-88.0778,-1.72,30.18,11111222 
DISL,ioos:station:DISL:DISL:1,2019-09-04T23:30:00Z,30.2513,-88.0778,-1.72,30.37,11111222 
DISL,ioos:station:DISL:DISL:1,2019-09-05T01:00:00Z,30.2513,-88.0778,-1.72,31.69,11111222 
DISL,ioos:station:DISL:DISL:1,2019-09-05T01:30:00Z,30.2513,-88.0778,-1.72,31.37,11111222 
DISL,ioos:station:DISL:DISL:1,2019-09-05T03:00:00Z,30.2513,-88.0778,-1.72,30.56,11111222 
DISL,ioos:station:DISL:DISL:1,2019-09-05T03:30:00Z,30.2513,-88.0778,-1.72,30.29,11111222 
DISL,ioos:station:DISL:DISL:1,2019-09-05T04:30:00Z,30.2513,-88.0778,-1.72,30.26,11111222 
DISL,ioos:station:DISL:DISL:1,2019-09-05T05:30:00Z,30.2513,-88.0778,-1.72,30.61,11111222 
DISL,ioos:station:DISL:DISL:1,2019-09-05T06:30:00Z,30.2513,-88.0778,-1.72,31.43,11111222 
DISL,ioos:station:DISL:DISL:1,2019-09-05T08:00:00Z,30.2513,-88.0778,-1.72,31.17,11111222 
DISL,ioos:station:DISL:DISL:1,2019-09-05T09:00:00Z,30.2513,-88.0778,-1.72,30.81,11111222 
DISL,ioos:station:DISL:DISL:1,2019-09-05T10:00:00Z,30.2513,-88.0778,-1.72,30.3,11111222 
DISL,ioos:station:DISL:DISL:1,2019-09-05T11:00:00Z,30.2513,-88.0778,-1.72,30.29,11111222 
DISL,ioos:station:DISL:DISL:1,2019-09-05T12:00:00Z,30.2513,-88.0778,-1.72,30.78,11111222 
DISL,ioos:station:DISL:DISL:1,2019-09-05T13:00:00Z,30.2513,-88.0778,-1.72,30.53,11111222 
DISL,ioos:station:DISL:DISL:1,2019-09-05T14:00:00Z,30.2513,-88.0778,-1.72,29.91,11111222 
DISL,ioos:station:DISL:DISL:1,2019-09-05T15:00:00Z,30.2513,-88.0778,-1.72,30.15,11111222 
DISL,ioos:station:DISL:DISL:1,2019-09-05T16:00:00Z,30.2513,-88.0778,-1.72,30.36,11111222 
DISL,ioos:station:DISL:DISL:1,2019-09-05T17:00:00Z,30.2513,-88.0778,-1.72,30.67,11111222 
DISL,ioos:station:DISL:DISL:1,2019-09-05T18:00:00Z,30.2513,-88.0778,-1.72,30.74,11111222 
DISL,ioos:station:DISL:DISL:1,2019-09-05T19:00:00Z,30.2513,-88.0778,-1.72,30.61,11111222 
DISL,ioos:station:DISL:DISL:1,2019-09-05T20:00:00Z,30.2513,-88.0778,-1.72,31.34,11111222 
DISL,ioos:station:DISL:DISL:1,2019-09-05T21:00:00Z,30.2513,-88.0778,-1.72,31.42,11111222 
DISL,ioos:station:DISL:DISL:1,2019-09-05T22:00:00Z,30.2513,-88.0778,-1.72,31.79,11111222 
DISL,ioos:station:DISL:DISL:1,2019-09-05T23:00:00Z,30.2513,-88.0778,-1.72,32.14,11111222 
DISL,ioos:station:DISL:DISL:1,2019-09-05T23:30:00Z,30.2513,-88.0778,-1.72,31.6,11111222 
DISL,ioos:station:DISL:DISL:1,2019-09-06T00:30:00Z,30.2513,-88.0778,-1.72,32.15,11111222 
DISL,ioos:station:DISL:DISL:1,2019-09-06T01:30:00Z,30.2513,-88.0778,-1.72,32.16,11111222 
DISL,ioos:station:DISL:DISL:1,2019-09-06T02:30:00Z,30.2513,-88.0778,-1.72,31.98,11111222 
DISL,ioos:station:DISL:DISL:1,2019-09-06T03:30:00Z,30.2513,-88.0778,-1.72,31.85,11111222 
DISL,ioos:station:DISL:DISL:1,2019-09-06T04:30:00Z,30.2513,-88.0778,-1.72,31.6,11111222 
DISL,ioos:station:DISL:DISL:1,2019-09-06T08:00:00Z,30.2513,-88.0778,-1.72,30.91,11111222 
DISL,ioos:station:DISL:DISL:1,2019-09-06T09:00:00Z,30.2513,-88.0778,-1.72,30.75,11111222 
DISL,ioos:station:DISL:DISL:1,2019-09-06T10:00:00Z,30.2513,-88.0778,-1.72,30.55,11111222 
DISL,ioos:station:DISL:DISL:1,2019-09-06T11:00:00Z,30.2513,-88.0778,-1.72,30.22,11111222 
DISL,ioos:station:DISL:DISL:1,2019-09-06T12:00:00Z,30.2513,-88.0778,-1.72,29.84,11111222 
DISL,ioos:station:DISL:DISL:1,2019-09-06T13:00:00Z,30.2513,-88.0778,-1.72,29.67,11111222 
DISL,ioos:station:DISL:DISL:1,2019-09-06T14:00:00Z,30.2513,-88.0778,-1.72,29.91,11111222 
DISL,ioos:station:DISL:DISL:1,2019-09-06T15:00:00Z,30.2513,-88.0778,-1.72,29.78,11111222 
DISL,ioos:station:DISL:DISL:1,2019-09-06T16:00:00Z,30.2513,-88.0778,-1.72,29.9,11111222 
DISL,ioos:station:DISL:DISL:1,2019-09-06T17:00:00Z,30.2513,-88.0778,-1.72,30.49,11111222 
DISL,ioos:station:DISL:DISL:1,2019-09-06T18:00:00Z,30.2513,-88.0778,-1.72,31.12,11111222 
DISL,ioos:station:DISL:DISL:1,2019-09-06T19:00:00Z,30.2513,-88.0778,-1.72,30.89,11111222 
DISL,ioos:station:DISL:DISL:1,2019-09-06T20:00:00Z,30.2513,-88.0778,-1.72,31.93,11111222 
DISL,ioos:station:DISL:DISL:1,2019-09-06T21:00:00Z,30.2513,-88.0778,-1.72,32.14,11111222 
DISL,ioos:station:DISL:DISL:1,2019-09-06T22:00:00Z,30.2513,-88.0778,-1.72,31.81,11111222 
DISL,ioos:station:DISL:DISL:1,2019-09-06T23:00:00Z,30.2513,-88.0778,-1.72,31.34,11111222 
DISL,ioos:station:DISL:DISL:1,2019-09-06T23:30:00Z,30.2513,-88.0778,-1.72,31.46,11111222 
DISL,ioos:station:DISL:DISL:1,2019-09-07T01:00:00Z,30.2513,-88.0778,-1.72,30.87,11111222 
DISL,ioos:station:DISL:DISL:1,2019-09-07T02:00:00Z,30.2513,-88.0778,-1.72,31.12,11111222 
DISL,ioos:station:DISL:DISL:1,2019-09-07T02:30:00Z,30.2513,-88.0778,-1.72,31.34,11111222 
DISL,ioos:station:DISL:DISL:1,2019-09-07T04:00:00Z,30.2513,-88.0778,-1.72,30.9,11111222 
DISL,ioos:station:DISL:DISL:1,2019-09-07T04:30:00Z,30.2513,-88.0778,-1.72,30.75,11111222 
DISL,ioos:station:DISL:DISL:1,2019-09-07T05:30:00Z,30.2513,-88.0778,-1.72,30.82,11111222 
DISL,ioos:station:DISL:DISL:1,2019-09-07T06:30:00Z,30.2513,-88.0778,-1.72,30.69,11111222 
DISL,ioos:station:DISL:DISL:1,2019-09-07T07:30:00Z,30.2513,-88.0778,-1.72,30.67,11111222 
DISL,ioos:station:DISL:DISL:1,2019-09-07T09:00:00Z,30.2513,-88.0778,-1.72,30.63,11111222 
DISL,ioos:station:DISL:DISL:1,2019-09-07T10:00:00Z,30.2513,-88.0778,-1.72,30.38,11111222 
DISL,ioos:station:DISL:DISL:1,2019-09-07T10:30:00Z,30.2513,-88.0778,-1.72,30.31,11111222 
DISL,ioos:station:DISL:DISL:1,2019-09-07T12:00:00Z,30.2513,-88.0778,-1.72,29.79,11111222 
DISL,ioos:station:DISL:DISL:1,2019-09-07T13:00:00Z,30.2513,-88.0778,-1.72,30.02,11111222 
DISL,ioos:station:DISL:DISL:1,2019-09-07T14:00:00Z,30.2513,-88.0778,-1.72,30.0,11111222 
DISL,ioos:station:DISL:DISL:1,2019-09-07T15:00:00Z,30.2513,-88.0778,-1.72,30.01,11111222 
DISL,ioos:station:DISL:DISL:1,2019-09-07T16:00:00Z,30.2513,-88.0778,-1.72,30.2,11111222 
DISL,ioos:station:DISL:DISL:1,2019-09-07T17:00:00Z,30.2513,-88.0778,-1.72,30.86,11111222 
DISL,ioos:station:DISL:DISL:1,2019-09-07T18:00:00Z,30.2513,-88.0778,-1.72,31.32,11111222 
DISL,ioos:station:DISL:DISL:1,2019-09-07T19:00:00Z,30.2513,-88.0778,-1.72,31.65,11111222 
DISL,ioos:station:DISL:DISL:1,2019-09-07T20:00:00Z,30.2513,-88.0778,-1.72,31.93,11111222 
DISL,ioos:station:DISL:DISL:1,2019-09-07T21:00:00Z,30.2513,-88.0778,-1.72,31.95,11111222 
DISL,ioos:station:DISL:DISL:1,2019-09-07T22:00:00Z,30.2513,-88.0778,-1.72,31.95,11111222 
DISL,ioos:station:DISL:DISL:1,2019-09-07T23:00:00Z,30.2513,-88.0778,-1.72,31.85,11111222 
DISL,ioos:station:DISL:DISL:1,2019-09-07T23:30:00Z,30.2513,-88.0778,-1.72,31.37,11111222 
DISL,ioos:station:DISL:DISL:1,2019-09-08T01:00:00Z,30.2513,-88.0778,-1.72,31.77,11111222 
DISL,ioos:station:DISL:DISL:1,2019-09-08T01:30:00Z,30.2513,-88.0778,-1.72,31.78,11111222 
DISL,ioos:station:DISL:DISL:1,2019-09-08T02:30:00Z,30.2513,-88.0778,-1.72,31.83,11111222 
DISL,ioos:station:DISL:DISL:1,2019-09-08T03:30:00Z,30.2513,-88.0778,-1.72,31.72,11111222 
DISL,ioos:station:DISL:DISL:1,2019-09-08T04:30:00Z,30.2513,-88.0778,-1.72,31.62,11111222 
DISL,ioos:station:DISL:DISL:1,2019-09-08T05:30:00Z,30.2513,-88.0778,-1.72,31.55,11111222 
DISL,ioos:station:DISL:DISL:1,2019-09-08T06:30:00Z,30.2513,-88.0778,-1.72,31.48,11111222 
DISL,ioos:station:DISL:DISL:1,2019-09-08T07:30:00Z,30.2513,-88.0778,-1.72,31.3,11111222 
DISL,ioos:station:DISL:DISL:1,2019-09-08T08:30:00Z,30.2513,-88.0778,-1.72,31.26,11111222 
DISL,ioos:station:DISL:DISL:1,2019-09-08T09:30:00Z,30.2513,-88.0778,-1.72,31.4,11111222 
DISL,ioos:station:DISL:DISL:1,2019-09-08T10:30:00Z,30.2513,-88.0778,-1.72,31.33,11111222 
DISL,ioos:station:DISL:DISL:1,2019-09-08T11:30:00Z,30.2513,-88.0778,-1.72,31.25,11111222 
DISL,ioos:station:DISL:DISL:1,2019-09-08T12:30:00Z,30.2513,-88.0778,-1.72,31.17,11111222 
DISL,ioos:station:DISL:DISL:1,2019-09-08T13:30:00Z,30.2513,-88.0778,-1.72,31.14,11111222 
DISL,ioos:station:DISL:DISL:1,2019-09-08T14:30:00Z,30.2513,-88.0778,-1.72,31.22,11111222 
DISL,ioos:station:DISL:DISL:1,2019-09-08T15:30:00Z,30.2513,-88.0778,-1.72,31.32,11111222 
DISL,ioos:station:DISL:DISL:1,2019-09-08T17:00:00Z,30.2513,-88.0778,-1.72,31.49,11111222 
DISL,ioos:station:DISL:DISL:1,2019-09-08T18:00:00Z,30.2513,-88.0778,-1.72,32.13,11111222 
DISL,ioos:station:DISL:DISL:1,2019-09-08T19:00:00Z,30.2513,-88.0778,-1.72,32.66,11111222 
DISL,ioos:station:DISL:DISL:1,2019-09-08T20:00:00Z,30.2513,-88.0778,-1.72,33.05,11111222 
DISL,ioos:station:DISL:DISL:1,2019-09-08T21:00:00Z,30.2513,-88.0778,-1.72,32.97,11111222 
DISL,ioos:station:DISL:DISL:1,2019-09-08T22:00:00Z,30.2513,-88.0778,-1.72,32.68,11111222 
DISL,ioos:station:DISL:DISL:1,2019-09-08T23:00:00Z,30.2513,-88.0778,-1.72,32.36,11111222 
DISL,ioos:station:DISL:DISL:1,2019-09-09T00:00:00Z,30.2513,-88.0778,-1.72,32.12,11111222 
DISL,ioos:station:DISL:DISL:1,2019-09-09T01:00:00Z,30.2513,-88.0778,-1.72,32.1,11111222 
DISL,ioos:station:DISL:DISL:1,2019-09-09T02:00:00Z,30.2513,-88.0778,-1.72,32.46,11111222 
DISL,ioos:station:DISL:DISL:1,2019-09-09T03:00:00Z,30.2513,-88.0778,-1.72,32.71,11111222 
DISL,ioos:station:DISL:DISL:1,2019-09-09T04:00:00Z,30.2513,-88.0778,-1.72,32.66,11111222 
DISL,ioos:station:DISL:DISL:1,2019-09-09T05:00:00Z,30.2513,-88.0778,-1.72,32.34,11111222 
DISL,ioos:station:DISL:DISL:1,2019-09-09T06:00:00Z,30.2513,-88.0778,-1.72,32.06,11111222 
DISL,ioos:station:DISL:DISL:1,2019-09-09T07:00:00Z,30.2513,-88.0778,-1.72,31.67,11111222 
DISL,ioos:station:DISL:DISL:1,2019-09-09T08:00:00Z,30.2513,-88.0778,-1.72,30.8,11111222 
DISL,ioos:station:DISL:DISL:1,2019-09-09T09:00:00Z,30.2513,-88.0778,-1.72,30.66,11111222 
DISL,ioos:station:DISL:DISL:1,2019-09-09T10:00:00Z,30.2513,-88.0778,-1.72,30.69,11111222 
DISL,ioos:station:DISL:DISL:1,2019-09-09T11:00:00Z,30.2513,-88.0778,-1.72,30.88,11111222 
DISL,ioos:station:DISL:DISL:1,2019-09-09T12:00:00Z,30.2513,-88.0778,-1.72,31.33,11111222 
DISL,ioos:station:DISL:DISL:1,2019-09-09T13:00:00Z,30.2513,-88.0778,-1.72,30.82,11111222 
DISL,ioos:station:DISL:DISL:1,2019-09-09T14:00:00Z,30.2513,-88.0778,-1.72,31.06,11111222 
DISL,ioos:station:DISL:DISL:1,2019-09-09T15:00:00Z,30.2513,-88.0778,-1.72,31.25,11111222 
DISL,ioos:station:DISL:DISL:1,2019-09-09T16:00:00Z,30.2513,-88.0778,-1.72,31.51,11111222 
DISL,ioos:station:DISL:DISL:1,2019-09-09T17:00:00Z,30.2513,-88.0778,-1.72,31.66,11111222 
DISL,ioos:station:DISL:DISL:1,2019-09-09T18:00:00Z,30.2513,-88.0778,-1.72,31.65,11111222 
DISL,ioos:station:DISL:DISL:1,2019-09-09T19:00:00Z,30.2513,-88.0778,-1.72,31.52,11111222 
DISL,ioos:station:DISL:DISL:1,2019-09-09T23:00:00Z,30.2513,-88.0778,-1.72,32.18,11111222 
DISL,ioos:station:DISL:DISL:1,2019-09-10T00:00:00Z,30.2513,-88.0778,-1.72,31.92,11111222 
DISL,ioos:station:DISL:DISL:1,2019-09-10T01:00:00Z,30.2513,-88.0778,-1.72,31.74,11111222 
DISL,ioos:station:DISL:DISL:1,2019-09-10T02:00:00Z,30.2513,-88.0778,-1.72,31.74,11111222 
DISL,ioos:station:DISL:DISL:1,2019-09-10T03:00:00Z,30.2513,-88.0778,-1.72,31.41,11111222 
DISL,ioos:station:DISL:DISL:1,2019-09-10T04:00:00Z,30.2513,-88.0778,-1.72,31.28,11111222 
DISL,ioos:station:DISL:DISL:1,2019-09-10T05:00:00Z,30.2513,-88.0778,-1.72,31.3,11111222 
DISL,ioos:station:DISL:DISL:1,2019-09-10T06:00:00Z,30.2513,-88.0778,-1.72,31.26,11111222 
DISL,ioos:station:DISL:DISL:1,2019-09-10T07:00:00Z,30.2513,-88.0778,-1.72,30.98,11111222 
DISL,ioos:station:DISL:DISL:1,2019-09-10T08:00:00Z,30.2513,-88.0778,-1.72,30.92,11111222 
DISL,ioos:station:DISL:DISL:1,2019-09-10T09:00:00Z,30.2513,-88.0778,-1.72,30.86,11111222 
DISL,ioos:station:DISL:DISL:1,2019-09-10T10:00:00Z,30.2513,-88.0778,-1.72,30.79,11111222 
DISL,ioos:station:DISL:DISL:1,2019-09-10T11:00:00Z,30.2513,-88.0778,-1.72,30.79,11111222 
DISL,ioos:station:DISL:DISL:1,2019-09-10T12:00:00Z,30.2513,-88.0778,-1.72,30.77,11111222 
DISL,ioos:station:DISL:DISL:1,2019-09-10T13:00:00Z,30.2513,-88.0778,-1.72,30.73,11111222 
DISL,ioos:station:DISL:DISL:1,2019-09-10T14:00:00Z,30.2513,-88.0778,-1.72,30.55,11111222 
DISL,ioos:station:DISL:DISL:1,2019-09-10T15:00:00Z,30.2513,-88.0778,-1.72,30.35,11111222 
DISL,ioos:station:DISL:DISL:1,2019-09-10T16:00:00Z,30.2513,-88.0778,-1.72,30.41,11111222 
DISL,ioos:station:DISL:DISL:1,2019-09-10T17:00:00Z,30.2513,-88.0778,-1.72,30.69,11111222 
DISL,ioos:station:DISL:DISL:1,2019-09-10T18:00:00Z,30.2513,-88.0778,-1.72,31.01,11111222 
DISL,ioos:station:DISL:DISL:1,2019-09-10T19:00:00Z,30.2513,-88.0778,-1.72,31.35,11111222 
DISL,ioos:station:DISL:DISL:1,2019-09-10T20:00:00Z,30.2513,-88.0778,-1.72,31.53,11111222 
DISL,ioos:station:DISL:DISL:1,2019-09-10T21:00:00Z,30.2513,-88.0778,-1.72,31.64,11111222 
DISL,ioos:station:DISL:DISL:1,2019-09-10T22:00:00Z,30.2513,-88.0778,-1.72,31.57,11111222 
DISL,ioos:station:DISL:DISL:1,2019-09-10T23:00:00Z,30.2513,-88.0778,-1.72,31.28,11111222 
DISL,ioos:station:DISL:DISL:1,2019-09-11T00:00:00Z,30.2513,-88.0778,-1.72,30.94,11111222 
DISL,ioos:station:DISL:DISL:1,2019-09-11T01:00:00Z,30.2513,-88.0778,-1.72,30.82,11111222 
DISL,ioos:station:DISL:DISL:1,2019-09-11T02:00:00Z,30.2513,-88.0778,-1.72,30.81,11111222 
DISL,ioos:station:DISL:DISL:1,2019-09-11T03:00:00Z,30.2513,-88.0778,-1.72,30.79,11111222 
DISL,ioos:station:DISL:DISL:1,2019-09-11T04:00:00Z,30.2513,-88.0778,-1.72,30.68,11111222 
DISL,ioos:station:DISL:DISL:1,2019-09-11T05:00:00Z,30.2513,-88.0778,-1.72,30.63,11111222 
DISL,ioos:station:DISL:DISL:1,2019-09-11T06:00:00Z,30.2513,-88.0778,-1.72,30.61,11111222 
DISL,ioos:station:DISL:DISL:1,2019-09-11T07:00:00Z,30.2513,-88.0778,-1.72,30.73,11111222 
DISL,ioos:station:DISL:DISL:1,2019-09-11T08:00:00Z,30.2513,-88.0778,-1.72,30.73,11111222 
DISL,ioos:station:DISL:DISL:1,2019-09-11T09:00:00Z,30.2513,-88.0778,-1.72,30.67,11111222 
DISL,ioos:station:DISL:DISL:1,2019-09-11T10:00:00Z,30.2513,-88.0778,-1.72,30.71,11111222 
DISL,ioos:station:DISL:DISL:1,2019-09-11T11:00:00Z,30.2513,-88.0778,-1.72,30.72,11111222 
DISL,ioos:station:DISL:DISL:1,2019-09-11T12:00:00Z,30.2513,-88.0778,-1.72,30.74,11111222 
DISL,ioos:station:DISL:DISL:1,2019-09-11T13:00:00Z,30.2513,-88.0778,-1.72,30.63,11111222 
DISL,ioos:station:DISL:DISL:1,2019-09-11T14:00:00Z,30.2513,-88.0778,-1.72,30.4,11111222 
DISL,ioos:station:DISL:DISL:1,2019-09-11T15:00:00Z,30.2513,-88.0778,-1.72,30.41,11111222 
DISL,ioos:station:DISL:DISL:1,2019-09-11T16:00:00Z,30.2513,-88.0778,-1.72,30.47,11111222 
DISL,ioos:station:DISL:DISL:1,2019-09-11T17:00:00Z,30.2513,-88.0778,-1.72,30.8,11111222 
DISL,ioos:station:DISL:DISL:1,2019-09-11T18:00:00Z,30.2513,-88.0778,-1.72,31.05,11111222 
DISL,ioos:station:DISL:DISL:1,2019-09-11T19:00:00Z,30.2513,-88.0778,-1.72,31.35,11111222 
DISL,ioos:station:DISL:DISL:1,2019-09-11T20:00:00Z,30.2513,-88.0778,-1.72,31.49,11111222 
DISL,ioos:station:DISL:DISL:1,2019-09-11T21:00:00Z,30.2513,-88.0778,-1.72,31.45,11111222 
DISL,ioos:station:DISL:DISL:1,2019-09-11T22:00:00Z,30.2513,-88.0778,-1.72,31.23,11111222 
DISL,ioos:station:DISL:DISL:1,2019-09-11T23:00:00Z,30.2513,-88.0778,-1.72,30.94,11111222 
DISL,ioos:station:DISL:DISL:1,2019-09-12T00:00:00Z,30.2513,-88.0778,-1.72,30.76,11111222 
DISL,ioos:station:DISL:DISL:1,2019-09-12T01:00:00Z,30.2513,-88.0778,-1.72,30.79,11111222 
DISL,ioos:station:DISL:DISL:1,2019-09-12T02:00:00Z,30.2513,-88.0778,-1.72,30.84,11111222 
DISL,ioos:station:DISL:DISL:1,2019-09-12T03:00:00Z,30.2513,-88.0778,-1.72,30.73,11111222 
DISL,ioos:station:DISL:DISL:1,2019-09-12T04:00:00Z,30.2513,-88.0778,-1.72,30.66,11111222 
DISL,ioos:station:DISL:DISL:1,2019-09-12T05:00:00Z,30.2513,-88.0778,-1.72,30.58,11111222 
DISL,ioos:station:DISL:DISL:1,2019-09-12T06:00:00Z,30.2513,-88.0778,-1.72,30.51,11111222 
DISL,ioos:station:DISL:DISL:1,2019-09-12T07:00:00Z,30.2513,-88.0778,-1.72,30.65,11111222 
DISL,ioos:station:DISL:DISL:1,2019-09-12T08:00:00Z,30.2513,-88.0778,-1.72,30.74,11111222 